Weather History for Kankakee, IL

Change the Weather History Date:

Monday, November 15, 2010

  Actual Average Record
Temperature  
Mean Temperature 44 °F -  
Max Temperature 55 °F 48 °F 68 °F (1990)
Min Temperature 33 °F 31 °F 10 °F (1982)
Degree Days  
Heating Degree Days 21    
Moisture  
Dew Point 31 °F    
Average Humidity 62    
Maximum Humidity 75    
Minimum Humidity 47    
Precipitation  
Precipitation 0.00 in - - ()
Sea Level Pressure  
Sea Level Pressure 29.90 in    
Wind  
Wind Speed 7 mph (SSW)    
Max Wind Speed 17 mph    
Max Gust Speed 22 mph    
Visibility 10 miles    
Events Rain    
Averages and records for this station are not official NWS values.
T = Trace of Precipitation, MM = Missing Value Source: NWS Daily Summary

Daily Weather History Graph

Daily Weather History Graph

Search for Another Location

Airport:

Trip Planner

Search our weather history database for the weather conditions in past years. The results will help you decide how hot, cold, wet, or windy it might be!

Date:

Astronomy

Nov. 15, 2010 Rise Set
Actual Time 6:39 AM CST 4:32 PM CST
Civil Twilight 6:09 AM CST 5:02 PM CST
Nautical Twilight 5:36 AM CST 5:35 PM CST
Astronomical Twilight 5:03 AM CST 6:07 PM CST
Moon 1:17 PM CST (11/15) 12:41 AM CST (11/15)
Length of Visible Light 10h 52m
Length of Day
9h 53m
Waxing Gibbous, 69% of the Moon is Illuminated
Nov 15
Waxing Gibbous
Nov 21
Full
Nov 28
Last Quarter
Dec 5
New
Dec 13
First Quarter

Hourly Weather History & Observations

Time (CST) Temp. Windchill Dew Point Humidity Pressure Visibility Wind Dir Wind Speed Gust Speed Precip Events Conditions
12:02 AM 42.8 °F 39.3 °F 28.4 °F 57% 29.92 in 10.0 mi SW 5.8 mph - N/A   Overcast
12:22 AM 42.8 °F 40.1 °F 28.4 °F 57% 29.91 in 10.0 mi SSW 4.6 mph - N/A   Overcast
12:42 AM 41.0 °F 38.0 °F 28.4 °F 61% 29.91 in 10.0 mi SW 4.6 mph - N/A   Overcast
1:02 AM 41.0 °F 39.0 °F 28.4 °F 61% 29.91 in 10.0 mi SW 3.5 mph - N/A   Overcast
1:22 AM 42.8 °F 41.1 °F 30.2 °F 61% 29.90 in 10.0 mi SW 3.5 mph - N/A Rain Light Rain
1:42 AM 41.0 °F 39.0 °F 30.2 °F 65% 29.90 in 10.0 mi SSW 3.5 mph - N/A   Overcast
2:02 AM 39.2 °F 35.0 °F 28.4 °F 65% 29.90 in 10.0 mi South 5.8 mph - N/A   Scattered Clouds
2:22 AM 37.4 °F 32.1 °F 26.6 °F 65% 29.90 in 10.0 mi South 6.9 mph - N/A   Clear
2:42 AM 37.4 °F 30.8 °F 26.6 °F 65% 29.90 in 10.0 mi South 9.2 mph - N/A   Scattered Clouds
3:02 AM 37.4 °F 30.8 °F 26.6 °F 65% 29.90 in 10.0 mi South 9.2 mph - N/A   Scattered Clouds
3:22 AM 37.4 °F 32.1 °F 26.6 °F 65% 29.89 in 10.0 mi South 6.9 mph - N/A   Scattered Clouds
3:42 AM 35.6 °F 29.2 °F 26.6 °F 70% 29.89 in 10.0 mi South 8.1 mph - N/A   Clear
4:02 AM 35.6 °F 28.6 °F 26.6 °F 70% 29.89 in 10.0 mi South 9.2 mph - N/A   Clear
4:22 AM 33.8 °F 26.4 °F 26.6 °F 75% 29.90 in 10.0 mi South 9.2 mph - N/A   Clear
4:42 AM 33.8 °F 26.4 °F 26.6 °F 75% 29.90 in 10.0 mi South 9.2 mph - N/A   Clear
5:02 AM 33.8 °F 27.7 °F 26.6 °F 75% 29.90 in 10.0 mi South 6.9 mph - N/A   Clear
5:22 AM 33.8 °F 27.0 °F 26.6 °F 75% 29.90 in 10.0 mi South 8.1 mph - N/A   Mostly Cloudy
5:42 AM 33.8 °F 26.4 °F 26.6 °F 75% 29.90 in 10.0 mi South 9.2 mph - N/A   Scattered Clouds
6:02 AM 33.8 °F 29.6 °F 26.6 °F 75% 29.90 in 10.0 mi South 4.6 mph - N/A   Clear
6:22 AM 33.8 °F 29.6 °F 26.6 °F 75% 29.90 in 10.0 mi SSE 4.6 mph - N/A   Clear
6:42 AM 33.8 °F 28.6 °F 26.6 °F 75% 29.91 in 10.0 mi South 5.8 mph - N/A   Clear
7:02 AM 33.8 °F 29.6 °F 26.6 °F 75% 29.91 in 10.0 mi South 4.6 mph - N/A   Clear
7:22 AM 33.8 °F 28.6 °F 26.6 °F 75% 29.92 in 10.0 mi South 5.8 mph - N/A   Clear
7:42 AM 35.6 °F 31.7 °F 28.4 °F 75% 29.92 in 10.0 mi South 4.6 mph - N/A   Clear
8:02 AM 37.4 °F 32.1 °F 30.2 °F 75% 29.92 in 10.0 mi SSW 6.9 mph - N/A   Clear
8:22 AM 41.0 °F 35.8 °F 30.2 °F 65% 29.92 in 10.0 mi SSW 8.1 mph - N/A   Scattered Clouds
8:42 AM 42.8 °F 36.6 °F 30.2 °F 61% 29.93 in 10.0 mi South 11.5 mph - N/A   Scattered Clouds
9:02 AM 44.6 °F 38.8 °F 30.2 °F 57% 29.93 in 10.0 mi SSW 11.5 mph - N/A   Scattered Clouds
9:22 AM 44.6 °F 40.2 °F 32.0 °F 61% 29.94 in 10.0 mi South 8.1 mph - N/A   Scattered Clouds
9:42 AM 44.6 °F 40.2 °F 32.0 °F 61% 29.94 in 10.0 mi South 8.1 mph - N/A   Scattered Clouds
10:02 AM 46.4 °F 41.5 °F 33.8 °F 62% 29.94 in 10.0 mi South 10.4 mph - N/A   Mostly Cloudy
10:22 AM 46.4 °F 40.7 °F 33.8 °F 62% 29.94 in 10.0 mi South 12.7 mph 16.1 mph N/A   Mostly Cloudy
10:42 AM 48.2 °F - 33.8 °F 58% 29.93 in 10.0 mi South 13.8 mph - N/A   Overcast
11:02 AM 48.2 °F - 33.8 °F 58% 29.93 in 10.0 mi South 9.2 mph - N/A   Overcast
11:22 AM 50.0 °F - 33.8 °F 54% 29.92 in 10.0 mi South 17.3 mph - N/A   Overcast
11:42 AM 50.0 °F - 33.8 °F 54% 29.91 in 10.0 mi South 13.8 mph - N/A   Mostly Cloudy
12:02 PM 51.8 °F - 35.6 °F 54% 29.90 in 10.0 mi South 13.8 mph - N/A   Scattered Clouds
12:22 PM 51.8 °F - 35.6 °F 54% 29.90 in 10.0 mi SW 10.4 mph - N/A   Clear
12:42 PM 53.6 °F - 35.6 °F 51% 29.89 in 10.0 mi SW 13.8 mph 21.9 mph N/A   Clear
1:02 PM 55.4 °F - 35.6 °F 47% 29.88 in 10.0 mi SW 15.0 mph 21.9 mph N/A   Scattered Clouds
1:22 PM 53.6 °F - 35.6 °F 51% 29.87 in 10.0 mi WSW 15.0 mph 20.7 mph N/A   Scattered Clouds
1:42 PM 53.6 °F - 35.6 °F 51% 29.87 in 10.0 mi WSW 15.0 mph 18.4 mph N/A   Scattered Clouds
2:02 PM 53.6 °F - 35.6 °F 51% 29.87 in 10.0 mi WSW 13.8 mph - N/A   Scattered Clouds
2:40 PM 53.6 °F - 35.6 °F 51% 29.87 in 10.0 mi SW 9.2 mph - N/A   Clear
3:00 PM 53.6 °F - 35.6 °F 51% 29.87 in 10.0 mi SW 9.2 mph - N/A   Scattered Clouds
3:20 PM 53.6 °F - 33.8 °F 47% 29.88 in 10.0 mi SSW 12.7 mph - N/A   Mostly Cloudy
3:22 PM 53.6 °F - 33.8 °F 47% 29.88 in 10.0 mi SSW 13.8 mph - N/A   Mostly Cloudy
3:42 PM 53.6 °F - 33.8 °F 47% 29.88 in 10.0 mi SSW 9.2 mph - N/A   Scattered Clouds
4:03 PM 51.8 °F - 35.6 °F 54% 29.88 in 10.0 mi SSW 5.8 mph - N/A   Clear
4:22 PM 48.2 °F - 33.8 °F 58% 29.88 in 10.0 mi South 3.5 mph - N/A   Clear
4:42 PM 48.2 °F - 33.8 °F 58% 29.88 in 10.0 mi Calm Calm - N/A   Clear
5:02 PM 48.2 °F - 33.8 °F 58% 29.89 in 10.0 mi SSE 4.6 mph - N/A   Clear
5:22 PM 46.4 °F - 33.8 °F 62% 29.89 in 10.0 mi Calm Calm - N/A   Clear
5:42 PM 44.6 °F 42.2 °F 33.8 °F 66% 29.89 in 10.0 mi SE 4.6 mph - N/A   Scattered Clouds
6:02 PM 44.6 °F - 33.8 °F 66% 29.89 in 10.0 mi Calm Calm - N/A   Mostly Cloudy
6:22 PM 44.6 °F - 33.8 °F 66% 29.89 in 10.0 mi Calm Calm - N/A   Scattered Clouds
6:42 PM 44.6 °F 40.7 °F 33.8 °F 66% 29.89 in 10.0 mi SE 6.9 mph - N/A   Clear
7:02 PM 44.6 °F 41.4 °F 33.8 °F 66% 29.89 in 10.0 mi SSE 5.8 mph - N/A   Clear
7:22 PM 46.4 °F 43.5 °F 33.8 °F 62% 29.89 in 10.0 mi South 5.8 mph - N/A   Clear
7:42 PM 44.6 °F 40.7 °F 32.0 °F 61% 29.88 in 10.0 mi South 6.9 mph - N/A   Clear
8:02 PM 44.6 °F 40.7 °F 32.0 °F 61% 29.88 in 10.0 mi South 6.9 mph - N/A   Clear
8:22 PM 44.6 °F 40.2 °F 30.2 °F 57% 29.88 in 10.0 mi South 8.1 mph - N/A   Clear
8:42 PM 44.6 °F 40.7 °F 30.2 °F 57% 29.88 in 10.0 mi South 6.9 mph - N/A   Clear
9:02 PM 42.8 °F 38.6 °F 30.2 °F 61% 29.89 in 10.0 mi South 6.9 mph - N/A   Clear
9:22 PM 41.0 °F 37.1 °F 30.2 °F 65% 29.89 in 10.0 mi South 5.8 mph - N/A   Clear
9:42 PM 39.2 °F 35.0 °F 30.2 °F 70% 29.89 in 10.0 mi South 5.8 mph - N/A   Clear
10:02 PM 39.2 °F 35.0 °F 30.2 °F 70% 29.89 in 10.0 mi South 5.8 mph - N/A   Clear
10:22 PM 37.4 °F - 28.4 °F 70% 29.90 in 10.0 mi Calm Calm - N/A   Clear
10:42 PM 35.6 °F 32.8 °F 28.4 °F 75% 29.89 in 10.0 mi South 3.5 mph - N/A   Clear
11:02 PM 33.8 °F - 28.4 °F 81% 29.88 in 10.0 mi Calm Calm - N/A   Clear
11:22 PM 37.4 °F 33.8 °F 28.4 °F 70% 29.88 in 10.0 mi SE 4.6 mph - N/A   Clear
11:42 PM 32.0 °F - 28.4 °F 87% 29.88 in 10.0 mi Calm Calm - N/A   Clear